Location: Lake Arresoe
(56.0000°N, 12.5000°E)
Time: 05:19:51
(UTC+02:00)

CZ-3 Stage 3 - Visible Passes

Search period start: 21 October 2018 00:00
Search period end: 30 October 2018 23:00
Orbit: 371 x 34821 km, 30.4° (Epoch: 19 October)

Date Brightness Start Highest point End Pass type
(mag) Time Alt. Az. Time Alt. Az. Time Alt. Az.
21 Oct 8.4 14:21:17 10° SSE 20:45:57 59° SSE 22:51:20 43° SSE visible
22 Oct 8.6 12:30:42 10° E 17:28:42 34° E 19:22:57 14° E visible
22 Oct 8.9 22:08:43 10° W 00:05:42 19° W 04:17:02 10° WNW visible
23 Oct 8.5 17:43:59 10° SW 21:06:22 48° SW 02:10:10 34° SW visible
24 Oct 8.4 14:10:07 10° SSE 20:31:40 59° SSE 22:41:52 42° SSE visible
25 Oct 8.7 12:17:09 10° E 17:16:33 34° E 19:13:37 13° E visible
25 Oct 8.9 21:55:48 10° W 23:54:13 19° W 04:09:09 10° WNW visible
26 Oct 8.5 17:33:06 10° SW 20:53:46 49° SW 02:00:59 34° SW visible
27 Oct 8.4 13:59:00 10° SSE 20:17:30 59° SSE 22:32:49 40° SSE visible
28 Oct 8.7 11:03:40 10° E 16:04:23 33° E 18:04:41 11° E visible
28 Oct 8.9 20:43:03 10° W 22:42:41 20° W 03:00:35 10° WNW visible
29 Oct 8.5 16:22:16 10° SW 19:41:09 49° SW 00:52:11 33° SW visible
30 Oct 8.4 12:47:56 10° SSE 19:03:26 59° SSE 21:24:08 39° SSE visible
